MEASAT-3A

Last updated on Sun Nov 16 2025 00:03:41 GMT+0000 (Coordinated Universal Time)

1 35362U 09032A 25319.45461596 -.00000103 00000+0 00000+0 0 9996 2 35362 0.0494 68.0330 0002946 177.0434 133.3952 1.00272111 5887
UTC large
Height (km)
Speed (km/s)
/
Latitude / Longitude
Inclination (degrees)
Orbital Period (minutes)
Azimuth
Elevation
Range (km)
Doppler Factor

Next 0 passes for location: London (51.5072 / 0.1276)

Sorry there are no passes over London.